Location: Gwatt
(46.7204°N, 7.6223°E)
Time: 23:12:35
(UTC+00:00)

Vanguard 2 Rocket - Pass Details

Date: 02 February 2021
Orbit: 554 x 3326 km, 32.9° (Epoch: 25 February)

Event Time Altitude Azimuth Distance (km) Brightness Sun altitude
Rises 17:47:36 0° 272° (W) 6,059 12.9 -12.7°
Reaches altitude 10° 17:54:16 10° 254° (WSW) 4,402 11.8 -13.8°
Maximum altitude 17:59:54 15° 224° (SW) 3,384 10.5 -14.8°
Drops below altitude 10° 18:04:19 10° 192° (SSW) 3,270 10.0 -15.5°
Sets 18:08:05 0° 169° (S) 3,791 10.1 -16.2°
